Home   Weather   Bristol   Past weeks
Flag for United Kingdom

Past Weather in Bristol, England, United Kingdom — Yesterday and Last 2 Weeks

Now
61 °F

Light rain. Partly sunny.


Feels Like: 61 °F
Forecast: 68 / 58 °F
Wind: 6 mph from West

Location: Bristol / Lulsgate

Current Time: Jul 19, 2019 at 8:15:24 pm

Latest Report: Jul 19, 2019 at 7:20 pm


Visibility: 4 mi

Pressure: 29.77 "Hg

Humidity: 100%

Dew Point: 61 °F

Location of BristolLocation

Past Weather in Bristol — Graph

°F

Bristol Temperature Yesterday

Maximum temperature yesterday: 68 °F (at 3:50 pm)
Minimum temperature yesterday: 57 °F (at 9:50 pm)
Average temperature yesterday: 61 °F

High & Low Weather Summary for the Past Weeks

 TemperatureHumidityPressure
High75 °F (Jul 16, 2:50 pm)100% (Jul 6, 2:50 am)30.24 "Hg (Jul 6, 2:50 am)
Low50 °F (Jul 15, 4:50 am)40% (Jul 5, 4:20 pm)29.77 "Hg (Jul 19, 1:50 pm)
Average63 °F75%30.06 "Hg
* Reported Jul 4 6:20 pm — Jul 19 6:50 pm, Bristol. Weather by CustomWeather, © 2019

Note: Actual official high and low records may vary slightly from our data, if they occured in-between our weather recording intervals... More about our weather records

Advertising

Bristol Weather History for the Previous 24 Hours

Scroll right to see more
 ConditionsComfort  
Time TempWeatherWind HumidityBarometerVisibility
6:50 pm
Fri, Jul 19
63 °FLight rain. Partly sunny.9 mph94%29.77 "Hg4 mi
6:20 pm63 °FRain. Broken clouds.9 mph94%29.77 "Hg4 mi
5:50 pm63 °FRain. Broken clouds.9 mph94%29.77 "Hg4 mi
5:20 pm63 °FRain. Fog.14 mph100%29.77 "Hg3 mi
4:50 pm64 °FLight rain. Fog.9 mph94%29.77 "Hg3 mi
4:20 pm64 °FLight rain. Partly sunny.10 mph94%29.77 "Hg4 mi
3:50 pm64 °FLight rain. Partly sunny.10 mph100%29.80 "Hg4 mi
3:20 pm64 °FPartly sunny.12 mph100%29.80 "Hg6 mi
2:50 pm64 °FDrizzle. Partly sunny.12 mph100%29.77 "Hg5 mi
2:20 pm64 °FDrizzle. Partly sunny.8 mph100%29.77 "Hg5 mi
1:50 pm66 °FRain showers. Broken clouds.13 mph94%29.77 "Hg6 mi
1:20 pm66 °FRain. Broken clouds.12 mph94%29.80 "HgN/A
12:50 pm66 °FLow clouds.13 mph94%29.80 "HgN/A
12:20 pm64 °FLow clouds.15 mph94%29.80 "HgN/A
11:50 am63 °FLow clouds.10 mph100%29.80 "HgN/A
11:20 am61 °FLight rain. Partly sunny.9 mph100%29.80 "Hg6 mi
10:50 am61 °FRain. Partly sunny.10 mph94%29.80 "Hg2 mi
10:20 am59 °FLight rain. Partly sunny.14 mph94%29.80 "Hg6 mi
9:50 am57 °FLight rain. Broken clouds.13 mph100%29.83 "Hg4 mi
9:20 am57 °FRain. Partly sunny.16 mph100%29.80 "Hg2 mi
8:50 am57 °FDrizzle. Partly sunny.12 mph94%29.83 "Hg1 mi
8:20 am57 °FRain. Partly sunny.14 mph94%29.83 "Hg2 mi
7:50 am57 °FMostly cloudy.9 mph94%29.83 "HgN/A
7:20 am57 °FLight rain. Partly sunny.9 mph94%29.86 "Hg4 mi
6:50 am57 °FLight rain. Broken clouds.8 mph94%29.86 "HgN/A
6:20 am57 °FLight rain. Broken clouds.8 mph94%29.86 "HgN/A
5:50 am55 °FLight rain. Cloudy.7 mph94%29.86 "HgN/A
5:20 am55 °FLight rain. Cloudy.6 mph94%29.89 "Hg4 mi
4:50 am57 °FLight rain. Passing clouds.7 mph88%29.89 "HgN/A
4:20 am57 °FPassing clouds.6 mph88%29.89 "HgN/A
3:50 am57 °FCool.6 mph88%29.89 "HgN/A
3:20 am55 °FCool.6 mph88%29.89 "HgN/A
2:50 am55 °FCool.5 mph88%29.89 "HgN/A
2:20 am55 °FPassing clouds.6 mph88%29.92 "HgN/A
1:50 am57 °FPassing clouds.6 mph82%29.92 "HgN/A
1:20 am55 °FPassing clouds.5 mph94%29.92 "HgN/A
12:50 am57 °FCool.5 mph88%29.92 "HgN/A
12:20 am57 °FCool.5 mph88%29.92 "HgN/A
11:50 pm
Thu, Jul 18
57 °FCool.6 mph88%29.92 "HgN/A
11:20 pm57 °FCool.9 mph88%29.92 "HgN/A
10:50 pm57 °FCool.9 mph88%29.92 "HgN/A
10:20 pm57 °FCool.13 mph88%29.92 "HgN/A
9:50 pm57 °FCool.13 mph88%29.92 "HgN/A
9:20 pm59 °FCool.13 mph77%29.92 "HgN/A
8:50 pm59 °FCool.15 mph77%29.92 "HgN/A
8:20 pm61 °FCool.14 mph72%29.92 "HgN/A
Weather by CustomWeather, © 2019

See weather overview